カタログに戻る

CUAVA-2

運用中科学SSO
NORAD 60527·PAYLOAD·🇦🇺 Australia

打ち上げ Aug 16, 2024 から Vandenberg Space Force Base

Loading…

次のパス (今後24時間)

TLE

最新Source: Space-Track

元期: Sep 14, 2026, 11:11 UTC

1 60527U 24149BM  26257.46662147  .00009784  00000-0  26386-3 0  9994
2 60527  97.3675 339.2314 0005605 344.5167  15.5906 15.37993114115882

AllMySatでCUAVA-2をリアルタイム追跡

Download on the App Store